Location: Makanda
(37.6176°N, 89.2090°W)
Time: 22:57:23
(UTC+00:00)

Intercosmos 24 Rocket - Pass Details

Date: 23 September 2019
Orbit: 498 x 2440 km, 82.6° (Epoch: 13 October)

Event Time Altitude Azimuth Distance (km) Brightness Sun altitude
Rises 09:37:18 0° 353° (N) 3,380 8.5 -25.6°
Reaches altitude 10° 09:40:02 10° 355° (N) 2,213 7.5 -25.1°
Enters shadow 09:44:36 80° 58° (ENE) 592 4.4 -24.2°
